Regional Weather Roundup
Issued by NWS Cleveland, OH

Home | Current Version | Previous Version | Text Only | Print | Product List | Glossary Off
Versions: 1 2 3 4 5 6 7 8 9 10 11 12 13 14 15 16 17 18 19 20 21 22 23 24 25 26 27 28 29 30 31 32 33 34 35 36 37 38 39 40 41 42 43 44 45 46 47 48 49 50

000
ASUS41 KCLE 051202
RWRCLE
OHIO REGIONAL WEATHER ROUNDUP
NATIONAL WEATHER SERVICE CLEVELAND, OH
800 AM EDT TUE MAY 05 2015

NOTE: "FAIR" INDICATES FEW OR NO CLOUDS BELOW 12,000 FEET WITH NO
SIGNIFICANT WEATHER AND/OR OBSTRUCTIONS TO VISIBILITY.

OHZ001>008-015>018-024>027-034-035-043-044-051300-
   NORTHWEST OHIO

CITY           SKY/WX    TMP DP  RH WIND       PRES   REMARKS
DEFIANCE       LGT RAIN  61  59  93 CALM      30.25R VSB 1
FINDLAY        LGT RAIN  62  59  90 W5        30.25R FOG
TOLEDO EXPRESS CLOUDY    58  50  75 E17       30.26R
TOLEDO EXEC    CLOUDY    58  48  69 NE9       30.28R
LIMA           CLOUDY    61  60  97 CALM      30.25S FOG
$$

OHZ009>014-019>023-028>033-038-089-051300-
   NORTHEAST OHIO

CITY           SKY/WX    TMP DP  RH WIND       PRES   REMARKS
CLE-HOPKINS    CLOUDY    61  57  87 CALM      30.28R FOG
CLE-LAKEFRONT  PTSUNNY   54  52  93 CALM      30.25R FOG
CUY CO. ARPT   CLOUDY    61  59  94 CALM      30.27R FOG
LORAIN-ELYRIA  CLOUDY    58  57  97 W3        30.26R FOG
ASHTABULA      FOG       56  56 100 SE5       30.27R VSB 3/4
AKRON-CANTON   CLOUDY    61  59  93 CALM      30.27R FOG
WOOSTER        CLOUDY    59  58  96 CALM      30.28R FOG
MANSFIELD      CLOUDY    62  59  90 SW8       30.27R FOG
YOUNGSTOWN     LGT RAIN  58  58 100 SW3       30.28R VSB 3/4
$$

OHZ042-051>053-060>062-070>072-077>081-051300-
  SOUTHWEST OHIO

CITY           SKY/WX    TMP DP  RH WIND       PRES   REMARKS
CINC-COVINGTON MOSUNNY   63  59  87 S3        30.26R
CINC-LUNKEN    SUNNY     58  58 100 CALM      30.27R FOG
HAMILTON       SUNNY     62  60  93 CALM      30.27R FOG
DAYTON         CLOUDY    63  61  93 S3        30.27R FOG
WRIGHT-PAT AFB NOT AVBL
DAYTON GENERAL PTSUNNY   61  60  97 S3        30.26R
WILMINGTON     MOSUNNY   61  57  87 SE3       30.28R
$$

OHZ036-037-039>041-045>050-054>059-063>069-073>076-082>088-051300-
  CENTRAL AND SOUTHEAST OHIO

CITY           SKY/WX    TMP DP  RH WIND       PRES   REMARKS
COLUMBUS       CLOUDY    62  60  93 NW5       30.27R
OSU AIRPORT    LGT RAIN  62  59  90 N9        30.27R
BOLTON FIELD   CLOUDY    61  61 100 CALM      30.28R FOG
RICKENBACK AFB NOT AVBL
NEWARK         CLOUDY    63  61  93 CALM      30.27R FOG
MARION         PTSUNNY   63  58  83 SW6       30.27R
LANCASTER      PTSUNNY   63  60  90 S5        30.28R FOG
ZANESVILLE     CLOUDY    61  59  93 CALM      30.27S FOG
NEW PHILLY     FOG       63  61  93 SE5       30.28R VSB 1
$$



USA.gov is the U.S. government's official web portal to all federal, state and local government web resources and services.